Time,TemperatureF,DewpointF,PressureIn,WindDirection,WindDirectionDegrees,WindSpeedMPH,WindSpeedGustMPH,Humidity,HourlyPrecipIn,Conditions,Clouds,dailyrainin,SolarRadiationWatts/m^2,SoftwareType,DateUTC
2013-06-23 00:12:00,76.0,69.0,30.05,SE,140,0.0,3.0,78,0.00,,,0.00,0,weatherlink.com 1.10,2013-06-23 05:12:00,
2013-06-23 00:28:00,75.6,69.0,30.05,SE,140,1.0,2.0,79,0.00,,,0.00,0,weatherlink.com 1.10,2013-06-23 05:28:00,
2013-06-23 00:43:00,75.5,69.0,30.05,SSE,155,2.0,4.0,79,0.00,,,0.00,0,weatherlink.com 1.10,2013-06-23 05:43:00,
2013-06-23 00:58:00,75.3,68.0,30.04,SE,139,1.0,3.0,79,0.00,,,0.00,0,weatherlink.com 1.10,2013-06-23 05:58:00,
2013-06-23 01:12:00,75.0,68.0,30.04,SE,139,1.0,3.0,79,0.00,,,0.00,0,weatherlink.com 1.10,2013-06-23 06:12:00,
2013-06-23 01:28:00,74.6,68.0,30.04,SE,139,0.0,3.0,80,0.00,,,0.00,0,weatherlink.com 1.10,2013-06-23 06:28:00,
2013-06-23 01:42:00,74.3,68.0,30.03,SSE,153,1.0,4.0,81,0.00,,,0.00,0,weatherlink.com 1.10,2013-06-23 06:42:00,
2013-06-23 01:58:00,74.0,68.0,30.02,SSE,151,2.0,4.0,81,0.00,,,0.00,0,weatherlink.com 1.10,2013-06-23 06:58:00,
2013-06-23 02:13:00,73.8,68.0,30.02,SE,133,1.0,4.0,81,0.00,,,0.00,0,weatherlink.com 1.10,2013-06-23 07:13:00,
2013-06-23 02:28:00,73.6,67.0,30.02,South,189,0.0,3.0,81,0.00,,,0.00,0,weatherlink.com 1.10,2013-06-23 07:28:00,
2013-06-23 02:43:00,73.4,68.0,30.02,South,172,0.0,4.0,82,0.00,,,0.00,0,weatherlink.com 1.10,2013-06-23 07:43:00,
2013-06-23 02:58:00,73.1,67.0,30.02,South,172,2.0,4.0,82,0.00,,,0.00,0,weatherlink.com 1.10,2013-06-23 07:58:00,
2013-06-23 03:13:00,72.8,67.0,30.02,South,172,2.0,3.0,83,0.00,,,0.00,0,weatherlink.com 1.10,2013-06-23 08:13:00,
2013-06-23 03:29:00,72.5,67.0,30.02,South,172,0.0,2.0,83,0.00,,,0.00,0,weatherlink.com 1.10,2013-06-23 08:29:00,
2013-06-23 03:44:00,72.2,67.0,30.02,South,172,1.0,2.0,84,0.00,,,0.00,0,weatherlink.com 1.10,2013-06-23 08:44:00,
2013-06-23 03:59:00,72.2,67.0,30.02,South,172,1.0,3.0,84,0.00,,,0.00,0,weatherlink.com 1.10,2013-06-23 08:59:00,
2013-06-23 04:14:00,71.9,67.0,30.02,South,172,1.0,3.0,84,0.00,,,0.00,0,weatherlink.com 1.10,2013-06-23 09:14:00,
2013-06-23 04:29:00,71.6,67.0,30.02,South,172,1.0,3.0,85,0.00,,,0.00,0,weatherlink.com 1.10,2013-06-23 09:29:00,
2013-06-23 04:44:00,71.4,67.0,30.02,South,172,1.0,3.0,85,0.00,,,0.00,0,weatherlink.com 1.10,2013-06-23 09:44:00,
2013-06-23 04:59:00,71.1,67.0,30.03,South,172,1.0,4.0,86,0.00,,,0.00,0,weatherlink.com 1.10,2013-06-23 09:59:00,
2013-06-23 05:14:00,71.0,67.0,30.04,South,172,0.0,2.0,86,0.00,,,0.00,0,weatherlink.com 1.10,2013-06-23 10:14:00,
2013-06-23 05:29:00,70.7,67.0,30.04,South,172,0.0,1.0,87,0.00,,,0.00,0,weatherlink.com 1.10,2013-06-23 10:29:00,
2013-06-23 05:44:00,70.4,66.0,30.04,South,172,0.0,1.0,87,0.00,,,0.00,0,weatherlink.com 1.10,2013-06-23 10:44:00,
2013-06-23 05:59:00,70.3,67.0,30.04,South,172,0.0,2.0,88,0.00,,,0.00,11,weatherlink.com 1.10,2013-06-23 10:59:00,
2013-06-23 06:14:00,70.2,67.0,30.05,South,172,0.0,1.0,88,0.00,,,0.00,21,weatherlink.com 1.10,2013-06-23 11:14:00,
2013-06-23 06:29:00,70.2,66.0,30.06,South,172,1.0,2.0,87,0.00,,,0.00,44,weatherlink.com 1.10,2013-06-23 11:29:00,
2013-06-23 06:44:00,70.8,67.0,30.06,South,172,0.0,1.0,87,0.00,,,0.00,93,weatherlink.com 1.10,2013-06-23 11:44:00,
2013-06-23 06:59:00,72.0,68.0,30.07,East,87,0.0,2.0,86,0.00,,,0.00,135,weatherlink.com 1.10,2013-06-23 11:59:00,
2013-06-23 07:14:00,72.7,67.0,30.08,SSE,155,0.0,4.0,83,0.00,,,0.00,77,weatherlink.com 1.10,2013-06-23 12:14:00,
2013-06-23 07:29:00,72.9,68.0,30.09,SSE,155,2.0,3.0,84,0.00,,,0.00,148,weatherlink.com 1.10,2013-06-23 12:29:00,
2013-06-23 07:44:00,73.4,68.0,30.09,SE,135,2.0,3.0,83,0.00,,,0.00,121,weatherlink.com 1.10,2013-06-23 12:44:00,
2013-06-23 07:59:00,74.4,69.0,30.09,South,178,2.0,4.0,82,0.00,,,0.00,325,weatherlink.com 1.10,2013-06-23 12:59:00,
2013-06-23 08:14:00,75.7,69.0,30.10,SSE,160,1.0,5.0,80,0.00,,,0.00,367,weatherlink.com 1.10,2013-06-23 13:14:00,
2013-06-23 08:29:00,77.2,70.0,30.09,SSE,155,2.0,5.0,77,0.00,,,0.00,415,weatherlink.com 1.10,2013-06-23 13:29:00,
2013-06-23 08:44:00,78.0,70.0,30.09,SE,124,3.0,6.0,77,0.00,,,0.00,464,weatherlink.com 1.10,2013-06-23 13:44:00,
2013-06-23 08:59:00,79.3,71.0,30.10,SSE,163,2.0,4.0,76,0.00,,,0.00,508,weatherlink.com 1.10,2013-06-23 13:59:00,
2013-06-23 09:14:00,80.2,70.0,30.09,South,185,3.0,7.0,72,0.00,,,0.00,550,weatherlink.com 1.10,2013-06-23 14:14:00,
2013-06-23 09:29:00,80.8,70.0,30.09,SSE,165,4.0,8.0,69,0.00,,,0.00,592,weatherlink.com 1.10,2013-06-23 14:29:00,
2013-06-23 09:45:00,81.8,71.0,30.09,SSE,153,4.0,8.0,69,0.00,,,0.00,636,weatherlink.com 1.10,2013-06-23 14:45:00,
2013-06-23 10:00:00,82.6,71.0,30.09,SSE,164,4.0,9.0,67,0.00,,,0.00,668,weatherlink.com 1.10,2013-06-23 15:00:00,
2013-06-23 10:15:00,83.0,70.0,30.09,SSE,164,4.0,9.0,66,0.00,,,0.00,707,weatherlink.com 1.10,2013-06-23 15:15:00,
2013-06-23 10:30:00,83.4,70.0,30.09,South,169,5.0,12.0,65,0.00,,,0.00,744,weatherlink.com 1.10,2013-06-23 15:30:00,
2013-06-23 10:47:00,83.9,72.0,30.09,SE,143,4.0,9.0,67,0.00,,,0.00,773,weatherlink.com 1.10,2013-06-23 15:47:00,
2013-06-23 11:02:00,84.1,71.0,30.08,SE,145,3.0,11.0,65,0.00,,,0.00,796,weatherlink.com 1.10,2013-06-23 16:02:00,
2013-06-23 11:17:00,84.6,71.0,30.08,South,182,3.0,11.0,64,0.00,,,0.00,814,weatherlink.com 1.10,2013-06-23 16:17:00,
2013-06-23 11:31:00,85.1,72.0,30.08,SSE,158,5.0,10.0,65,0.00,,,0.00,837,weatherlink.com 1.10,2013-06-23 16:31:00,
2013-06-23 11:46:00,85.3,73.0,30.07,ESE,115,4.0,9.0,66,0.00,,,0.00,872,weatherlink.com 1.10,2013-06-23 16:46:00,
2013-06-23 12:18:00,85.9,72.0,30.07,South,191,2.0,10.0,64,0.00,,,0.00,928,weatherlink.com 1.10,2013-06-23 17:18:00,
2013-06-23 12:33:00,86.1,72.0,30.07,SE,142,4.0,11.0,63,0.00,,,0.00,889,weatherlink.com 1.10,2013-06-23 17:33:00,
2013-06-23 12:48:00,86.3,71.0,30.06,SSE,162,9.0,10.0,61,0.00,,,0.00,889,weatherlink.com 1.10,2013-06-23 17:48:00,
2013-06-23 13:03:00,86.7,71.0,30.06,South,189,5.0,9.0,60,0.00,,,0.00,919,weatherlink.com 1.10,2013-06-23 18:03:00,
2013-06-23 13:18:00,86.4,72.0,30.05,SSE,159,8.0,10.0,62,0.00,,,0.00,905,weatherlink.com 1.10,2013-06-23 18:18:00,
2013-06-23 13:33:00,87.2,72.0,30.05,SSE,157,3.0,8.0,61,0.00,,,0.00,947,weatherlink.com 1.10,2013-06-23 18:33:00,
2013-06-23 13:48:00,87.5,71.0,30.05,SSE,164,2.0,8.0,59,0.00,,,0.00,937,weatherlink.com 1.10,2013-06-23 18:48:00,
2013-06-23 14:05:00,87.3,70.0,30.05,SSE,168,5.0,8.0,57,0.00,,,0.00,884,weatherlink.com 1.10,2013-06-23 19:05:00,
2013-06-23 14:20:00,87.6,71.0,30.04,ESE,114,2.0,6.0,58,0.00,,,0.00,229,weatherlink.com 1.10,2013-06-23 19:20:00,
2013-06-23 14:35:00,88.1,71.0,30.04,SSE,165,3.0,8.0,58,0.00,,,0.00,896,weatherlink.com 1.10,2013-06-23 19:35:00,
2013-06-23 14:50:00,88.5,70.0,30.03,SSW,195,3.0,8.0,54,0.00,,,0.00,884,weatherlink.com 1.10,2013-06-23 19:50:00,
2013-06-23 15:05:00,89.0,70.0,30.03,SSE,158,5.0,6.0,54,0.00,,,0.00,840,weatherlink.com 1.10,2013-06-23 20:05:00,
2013-06-23 15:20:00,89.1,70.0,30.03,SSE,155,5.0,8.0,54,0.00,,,0.00,805,weatherlink.com 1.10,2013-06-23 20:20:00,
2013-06-23 15:35:00,89.1,70.0,30.03,SSE,158,6.0,8.0,53,0.00,,,0.00,768,weatherlink.com 1.10,2013-06-23 20:35:00,
2013-06-23 15:51:00,88.5,68.0,30.02,SSW,199,3.0,6.0,50,0.00,,,0.00,207,weatherlink.com 1.10,2013-06-23 20:51:00,
2013-06-23 16:06:00,89.1,69.0,30.02,SSW,202,3.0,7.0,51,0.00,,,0.00,657,weatherlink.com 1.10,2013-06-23 21:06:00,
2013-06-23 16:21:00,89.5,71.0,30.01,SE,125,3.0,7.0,54,0.00,,,0.00,617,weatherlink.com 1.10,2013-06-23 21:21:00,
2013-06-23 16:36:00,88.3,72.0,30.01,SE,132,5.0,9.0,58,0.00,,,0.00,541,weatherlink.com 1.10,2013-06-23 21:36:00,
2013-06-23 16:51:00,88.4,71.0,30.00,SE,143,5.0,9.0,57,0.00,,,0.00,513,weatherlink.com 1.10,2013-06-23 21:51:00,
2013-06-23 17:06:00,88.4,71.0,30.00,SE,124,2.0,6.0,57,0.00,,,0.00,415,weatherlink.com 1.10,2013-06-23 22:06:00,
2013-06-23 17:22:00,87.9,71.0,30.00,SSE,153,5.0,8.0,57,0.00,,,0.00,251,weatherlink.com 1.10,2013-06-23 22:22:00,
2013-06-23 17:36:00,87.6,70.0,30.00,SE,131,4.0,6.0,57,0.00,,,0.00,262,weatherlink.com 1.10,2013-06-23 22:36:00,
2013-06-23 17:51:00,87.4,70.0,30.00,SSE,163,2.0,5.0,57,0.00,,,0.00,190,weatherlink.com 1.10,2013-06-23 22:51:00,
2013-06-23 18:08:00,86.7,70.0,30.00,South,188,3.0,6.0,57,0.00,,,0.00,120,weatherlink.com 1.10,2013-06-23 23:08:00,
2013-06-23 18:23:00,86.1,70.0,30.00,South,176,3.0,5.0,59,0.00,,,0.00,93,weatherlink.com 1.10,2013-06-23 23:23:00,
2013-06-23 18:38:00,85.4,71.0,30.00,SSW,201,3.0,4.0,62,0.00,,,0.00,93,weatherlink.com 1.10,2013-06-23 23:38:00,
2013-06-23 18:52:00,85.1,70.0,30.00,SSE,151,4.0,5.0,61,0.00,,,0.00,90,weatherlink.com 1.10,2013-06-23 23:52:00,
2013-06-23 19:08:00,84.7,70.0,30.00,SSE,157,2.0,4.0,62,0.00,,,0.00,74,weatherlink.com 1.10,2013-06-24 00:08:00,
2013-06-23 19:24:00,84.0,70.0,30.00,SSE,156,2.0,4.0,63,0.00,,,0.00,58,weatherlink.com 1.10,2013-06-24 00:24:00,
2013-06-23 19:39:00,83.5,71.0,30.01,SE,127,2.0,4.0,65,0.00,,,0.00,56,weatherlink.com 1.10,2013-06-24 00:39:00,
2013-06-23 19:53:00,83.1,71.0,30.02,SE,127,0.0,1.0,67,0.00,,,0.00,30,weatherlink.com 1.10,2013-06-24 00:53:00,
2013-06-23 20:08:00,82.5,71.0,30.02,SE,127,0.0,3.0,68,0.00,,,0.00,12,weatherlink.com 1.10,2013-06-24 01:08:00,
2013-06-23 20:25:00,81.6,71.0,30.02,SE,127,0.0,0.0,71,0.00,,,0.00,5,weatherlink.com 1.10,2013-06-24 01:25:00,
2013-06-23 20:40:00,80.6,71.0,30.02,WNW,289,0.0,1.0,73,0.00,,,0.00,0,weatherlink.com 1.10,2013-06-24 01:40:00,
2013-06-23 20:55:00,80.0,71.0,30.03,WNW,289,0.0,1.0,75,0.00,,,0.00,0,weatherlink.com 1.10,2013-06-24 01:55:00,
2013-06-23 21:10:00,79.3,71.0,30.03,WNW,289,0.0,0.0,76,0.00,,,0.00,0,weatherlink.com 1.10,2013-06-24 02:10:00,
2013-06-23 21:25:00,78.5,71.0,30.04,WNW,289,0.0,1.0,77,0.00,,,0.00,0,weatherlink.com 1.10,2013-06-24 02:25:00,
2013-06-23 21:40:00,78.2,71.0,30.04,WNW,289,0.0,1.0,78,0.00,,,0.00,0,weatherlink.com 1.10,2013-06-24 02:40:00,
2013-06-23 21:55:00,77.8,70.0,30.05,WNW,289,0.0,0.0,78,0.00,,,0.00,0,weatherlink.com 1.10,2013-06-24 02:55:00,
2013-06-23 22:10:00,77.0,70.0,30.06,WNW,289,0.0,0.0,80,0.00,,,0.00,0,weatherlink.com 1.10,2013-06-24 03:10:00,
2013-06-23 22:25:00,76.3,70.0,30.06,WNW,289,0.0,1.0,82,0.00,,,0.00,0,weatherlink.com 1.10,2013-06-24 03:25:00,
2013-06-23 22:40:00,76.1,70.0,30.06,WNW,289,0.0,0.0,82,0.00,,,0.00,0,weatherlink.com 1.10,2013-06-24 03:40:00,
2013-06-23 22:55:00,76.1,70.0,30.05,WNW,289,0.0,2.0,82,0.00,,,0.00,0,weatherlink.com 1.10,2013-06-24 03:55:00,
2013-06-23 23:10:00,75.8,70.0,30.05,WNW,289,1.0,2.0,82,0.00,,,0.00,0,weatherlink.com 1.10,2013-06-24 04:10:00,
2013-06-23 23:25:00,75.2,70.0,30.05,WNW,289,0.0,1.0,83,0.00,,,0.00,0,weatherlink.com 1.10,2013-06-24 04:25:00,
2013-06-23 23:40:00,74.7,70.0,30.05,WNW,289,1.0,2.0,84,0.00,,,0.00,0,weatherlink.com 1.10,2013-06-24 04:40:00,
2013-06-23 23:55:00,74.7,70.0,30.05,WNW,289,0.0,1.0,84,0.00,,,0.00,0,weatherlink.com 1.10,2013-06-24 04:55:00,